Location: Bakov nad Jizerou
(50.4784°N, 14.9394°E)
Time: 03:43:16
(UTC+00:00)

Cosmos 1727 Rocket - Pass Details

Date: 31 October 2021
Orbit: 960 x 997 km, 82.9° (Epoch: 07 December)

Event Time Altitude Azimuth Distance (km) Brightness Sun altitude
Rises 05:08:39 0° 205° (SSW) 3,688 6.9 -7.0°
Reaches altitude 10° 05:11:15 10° 211° (SSW) 2,739 6.2 -6.6°
Maximum altitude 05:17:20 50° 286° (WNW) 1,228 4.2 -5.7°
Drops below altitude 10° 05:23:25 10° 2° (N) 2,731 6.2 -4.8°
Sets 05:26:01 0° 8° (N) 3,677 6.9 -4.4°
